Location: Rometta
(44.2000°N, 10.0500°E)
Time: 11:45:47
(UTC+00:00)

Cosmos 1818 - Pass Details

Date: 14 May 2021
Orbit: 771 x 802 km, 65.0° (Epoch: 15 June)

Event Time Altitude Azimuth Distance (km) Brightness Sun altitude
Rises 20:50:11 0° 328° (NNW) 3,320 8.5 -18.7°
Reaches altitude 10° 20:52:45 10° 335° (NNW) 2,387 7.2 -18.9°
Maximum altitude 20:58:00 45° 48° (NE) 1,087 4.3 -19.5°
Enters shadow 21:00:27 28° 102° (ESE) 1,466 4.6 -19.7°
